Weather History for KFRG - January, 2014

Change the Weather History Date:

Saturday, January 18, 2014

  Actual Average Record
Temperature  
Mean Temperature 36 °F -  
Max Temperature 43 °F 33 °F 57 °F (2006)
Min Temperature 28 °F 21 °F 5 °F (1997)
Degree Days  
Heating Degree Days 30    
Moisture  
Dew Point 30 °F    
Average Humidity 83    
Maximum Humidity 100    
Minimum Humidity 61    
Precipitation  
Precipitation 0.08 in - - ()
Sea Level Pressure  
Sea Level Pressure 29.73 in    
Wind  
Wind Speed 6 mph (NNW)    
Max Wind Speed 15 mph    
Max Gust Speed 23 mph    
Visibility 8 miles    
Events Rain , Snow    
Averages and records for this station are not official NWS values.
T = Trace of Precipitation, MM = Missing Value Source: NWS Daily Summary

Daily Weather History Graph

Daily Weather History Graph

Search for Another Location

Airport or City:

Trip Planner

Search our weather history database for the weather conditions in past years. The results will help you decide how hot, cold, wet, or windy it might be!

Date:

Astronomy

Jan. 18, 2014 Rise Set
Actual Time 7:14 AM EST 4:54 PM EST
Civil Twilight 6:44 AM EST 5:24 PM EST
Nautical Twilight 6:10 AM EST 5:57 PM EST
Astronomical Twilight 5:38 AM EST 6:30 PM EST
Moon 7:35 PM EST (1/18) 8:11 AM EST (1/18)
Length of Visible Light 10h 40m
Length of Day
9h 40m
Waning Gibbous, 94% of the Moon is Illuminated
Jan 18
Waning Gibbous
Jan 24
Last Quarter
Jan 30
New
Feb 6
First Quarter
Feb 14
Full

Hourly Weather History & Observations

Time (EST) Temp. Windchill Dew Point Humidity Pressure Visibility Wind Dir Wind Speed Gust Speed Precip Events Conditions
12:53 AM 36.0 °F - 34.0 °F 93% 29.88 in 8.0 mi Calm Calm - N/A   Overcast
1:53 AM 36.0 °F - 34.0 °F 93% 29.86 in 8.0 mi Calm Calm - N/A   Overcast
2:53 AM 36.0 °F 32.1 °F 34.0 °F 93% 29.85 in 8.0 mi NE 4.6 mph - N/A   Overcast
3:53 AM 36.0 °F 32.1 °F 34.0 °F 93% 29.80 in 8.0 mi NNE 4.6 mph - 0.00 in   Overcast
4:53 AM 37.0 °F 32.4 °F 34.0 °F 89% 29.78 in 10.0 mi ENE 5.8 mph - N/A   Mostly Cloudy
5:53 AM 35.1 °F 31.0 °F 30.9 °F 85% 29.75 in 10.0 mi East 4.6 mph - N/A   Partly Cloudy
6:53 AM 34.0 °F 31.0 °F 32.0 °F 92% 29.75 in 9.0 mi NE 3.5 mph - N/A   Mostly Cloudy
7:53 AM 36.0 °F 33.3 °F 33.1 °F 89% 29.72 in 9.0 mi NE 3.5 mph - N/A   Overcast
8:53 AM 37.9 °F 33.5 °F 33.1 °F 83% 29.69 in 9.0 mi ENE 5.8 mph - N/A   Mostly Cloudy
9:53 AM 42.1 °F 39.2 °F 34.0 °F 73% 29.69 in 10.0 mi East 4.6 mph - N/A   Clear
10:53 AM 43.0 °F 40.3 °F 35.1 °F 74% 29.67 in 9.0 mi NNW 4.6 mph - 0.00 in Rain Light Rain
11:23 AM 37.4 °F 28.9 °F 33.8 °F 87% 29.69 in 4.0 mi WNW 13.8 mph 20.7 mph 0.01 in Rain Light Rain
11:31 AM 33.8 °F 23.9 °F 32.0 °F 93% 29.68 in 2.5 mi WNW 15.0 mph - 0.03 in Snow Light Snow
11:38 AM 33.8 °F 24.8 °F 30.2 °F 87% 29.67 in 1.0 mi NNW 12.7 mph - 0.07 in Snow Light Snow
11:45 AM 33.8 °F 25.3 °F 32.0 °F 93% 29.66 in 2.0 mi NNW 11.5 mph - 0.08 in Rain Light Rain
11:48 AM 35.6 °F 28.6 °F 33.8 °F 93% 29.65 in 3.0 mi North 9.2 mph - 0.08 in Rain Light Freezing Rain
11:53 AM 35.1 °F 27.4 °F 35.1 °F 100% 29.65 in 7.0 mi North 10.4 mph - 0.08 in Rain Light Freezing Rain
12:22 PM 35.6 °F 28.6 °F 33.8 °F 93% 29.65 in 10.0 mi NW 9.2 mph - 0.00 in   Mostly Cloudy
12:36 PM 37.4 °F 29.3 °F 35.6 °F 93% 29.65 in 10.0 mi NW 12.7 mph - 0.00 in   Mostly Cloudy
12:53 PM 37.0 °F 29.8 °F 35.1 °F 93% 29.65 in 10.0 mi NW 10.4 mph 23.0 mph 0.00 in   Mostly Cloudy
12:56 PM 37.4 °F 28.9 °F 35.6 °F 93% 29.65 in 10.0 mi NW 13.8 mph 23.0 mph N/A   Scattered Clouds
1:15 PM 35.6 °F 28.0 °F 33.8 °F 93% 29.65 in 10.0 mi NW 10.4 mph - N/A   Mostly Cloudy
1:53 PM 37.0 °F 30.4 °F 33.1 °F 86% 29.66 in 10.0 mi NW 9.2 mph 18.4 mph N/A   Overcast
2:04 PM 35.6 °F 27.5 °F 33.8 °F 93% 29.66 in 9.0 mi NW 11.5 mph 17.3 mph N/A   Overcast
2:53 PM 36.0 °F 30.3 °F 30.0 °F 79% 29.68 in 9.0 mi NW 6.9 mph 19.6 mph N/A   Overcast
3:53 PM 37.0 °F 29.3 °F 28.0 °F 70% 29.70 in 10.0 mi WNW 11.5 mph 19.6 mph N/A   Overcast
4:18 PM 35.6 °F 26.6 °F 26.6 °F 70% 29.72 in 10.0 mi WNW 13.8 mph 20.7 mph N/A   Mostly Cloudy
4:53 PM 35.1 °F 26.4 °F 25.0 °F 67% 29.74 in 10.0 mi WNW 12.7 mph - N/A   Scattered Clouds
5:53 PM 34.0 °F 26.0 °F 24.1 °F 67% 29.75 in 10.0 mi WNW 10.4 mph 16.1 mph N/A   Clear
6:53 PM 32.0 °F 24.2 °F 21.0 °F 64% 29.78 in 10.0 mi NW 9.2 mph 18.4 mph N/A   Clear
7:53 PM 30.0 °F 21.1 °F 19.9 °F 66% 29.80 in 10.0 mi West 10.4 mph - N/A   Clear
8:53 PM 30.0 °F 20.5 °F 18.0 °F 61% 29.81 in 10.0 mi WNW 11.5 mph 20.7 mph N/A   Clear
9:53 PM 28.9 °F 20.4 °F 18.0 °F 64% 29.81 in 10.0 mi WNW 9.2 mph - N/A   Partly Cloudy
10:53 PM 28.0 °F 21.7 °F 18.0 °F 66% 29.81 in 10.0 mi WNW 5.8 mph - N/A   Clear
11:53 PM 28.0 °F 18.6 °F 18.0 °F 66% 29.85 in 10.0 mi WNW 10.4 mph - N/A   Overcast